When you browse on this site, cookies collect data to enhance your experience and personalize the content and advertising you see.
Visit our Privacy Policy to learn more. By continuing to use the site, you agree to this use of cookies and data.
  • In Czech Republic
  • List of Countries
  • For 7 days
  • Water Temperature
  • Weather Map
  • Weather Widgets
  • user-avatar
    Login

    Hourly Weather Ciuciuleni

    Today, 29 May, Friday

    Time Temperature Precipitation Wind Pressure Humidity
    00:00 +10°C° 0 mm 4 mps 741 mmHg 91%
    01:00 +10°C° 0 mm 4 mps 741 mmHg 91%
    02:00 +10°C° 0 mm 4 mps 741 mmHg 90%
    03:00 +10°C° 0 mm 4 mps 741 mmHg 92%
    04:00 +10°C° 0 mm 4 mps 741 mmHg 93%
    05:00 +10°C° 0 mm 4 mps 741 mmHg 94%
    06:00 +9°C° 0.1 mm 5 mps 741 mmHg 93%
    07:00 +9°C° 0.1 mm 6 mps 741 mmHg 91%
    08:00 +9°C° 0.1 mm 6 mps 742 mmHg 90%
    09:00 +10°C° 0.2 mm 7 mps 742 mmHg 88%
    10:00 +10°C° 0.2 mm 7 mps 741 mmHg 87%
    11:00 +10°C° 0.2 mm 7 mps 741 mmHg 85%
    12:00 +13°C° 0.1 mm 6 mps 741 mmHg 80%
    13:00 +14°C° 0.1 mm 6 mps 741 mmHg 75%
    14:00 +16°C° 0.1 mm 5 mps 741 mmHg 70%
    15:00 +16°C° 0.4 mm 5 mps 741 mmHg 70%
    16:00 +16°C° 0.4 mm 5 mps 741 mmHg 70%
    17:00 +16°C° 0.4 mm 6 mps 741 mmHg 70%
    18:00 +15°C° 0.1 mm 5 mps 741 mmHg 76%
    19:00 +13°C° 0.1 mm 4 mps 741 mmHg 82%
    20:00 +12°C° 0.1 mm 3 mps 740 mmHg 88%
    21:00 +11°C° 0 mm 3 mps 740 mmHg 89%
    22:00 +10°C° 0 mm 3 mps 740 mmHg 90%
    23:00 +10°C° 0 mm 3 mps 740 mmHg 92%

    Tomorrow, 30 May, Saturday

    Time Temperature Precipitation Wind Pressure Humidity
    00:00 +10°C° 0 mm 3 mps 740 mmHg 93%
    01:00 +8°C° 0 mm 4 mps 740 mmHg 94%
    02:00 +8°C° 0 mm 4 mps 740 mmHg 95%
    03:00 +8°C° 0 mm 4 mps 740 mmHg 94%
    04:00 +8°C° 0 mm 4 mps 740 mmHg 93%
    05:00 +7°C° 0 mm 4 mps 740 mmHg 92%
    06:00 +9°C° 0 mm 5 mps 740 mmHg 87%
    07:00 +11°C° 0 mm 6 mps 740 mmHg 81%
    08:00 +12°C° 0 mm 7 mps 740 mmHg 76%
    09:00 +14°C° 0.1 mm 7 mps 740 mmHg 73%
    10:00 +15°C° 0.1 mm 7 mps 740 mmHg 69%
    11:00 +16°C° 0.1 mm 7 mps 740 mmHg 66%
    12:00 +16°C° 0.2 mm 7 mps 740 mmHg 64%
    13:00 +17°C° 0.2 mm 6 mps 740 mmHg 62%
    14:00 +19°C° 0.2 mm 6 mps 740 mmHg 59%
    15:00 +17°C° 0.3 mm 5 mps 740 mmHg 61%
    16:00 +18°C° 0.3 mm 4 mps 740 mmHg 62%
    17:00 +18°C° 0.3 mm 3 mps 739 mmHg 64%
    18:00 +16°C° 0.1 mm 3 mps 739 mmHg 70%
    19:00 +15°C° 0.1 mm 2 mps 740 mmHg 75%
    20:00 +13°C° 0.1 mm 2 mps 740 mmHg 81%
    21:00 +13°C° 0 mm 2 mps 740 mmHg 81%
    22:00 +12°C° 0 mm 1 mps 740 mmHg 82%
    23:00 +12°C° 0 mm 1 mps 740 mmHg 83%

    Day after tomorrow, 31 May, Sunday

    Time Temperature Precipitation Wind Pressure Humidity
    00:00 +11°C° 0 mm 1 mps 739 mmHg 83%
    01:00 +11°C° 0 mm 1 mps 739 mmHg 83%
    02:00 +9°C° 0 mm 0 mps 739 mmHg 84%
    03:00 +10°C° 0 mm 1 mps 739 mmHg 84%
    04:00 +10°C° 0 mm 1 mps 739 mmHg 84%
    05:00 +9°C° 0 mm 2 mps 739 mmHg 85%
    06:00 +12°C° 0 mm 2 mps 739 mmHg 78%
    07:00 +13°C° 0 mm 3 mps 739 mmHg 72%
    08:00 +15°C° 0 mm 4 mps 739 mmHg 66%
    09:00 +17°C° 0 mm 4 mps 739 mmHg 59%
    10:00 +19°C° 0 mm 4 mps 739 mmHg 53%
    11:00 +20°C° 0 mm 3 mps 739 mmHg 47%
    12:00 +20°C° 0.1 mm 4 mps 739 mmHg 49%
    13:00 +21°C° 0.1 mm 4 mps 739 mmHg 50%
    14:00 +21°C° 0.1 mm 4 mps 739 mmHg 51%
    15:00 +21°C° 0.7 mm 3 mps 739 mmHg 55%
    16:00 +20°C° 0.7 mm 3 mps 739 mmHg 59%
    17:00 +20°C° 0.7 mm 2 mps 739 mmHg 63%
    18:00 +19°C° 0.9 mm 2 mps 739 mmHg 69%
    19:00 +17°C° 0.9 mm 2 mps 739 mmHg 75%
    20:00 +16°C° 0.9 mm 2 mps 739 mmHg 81%
    21:00 +15°C° 0.2 mm 2 mps 739 mmHg 82%
    22:00 +15°C° 0.2 mm 2 mps 740 mmHg 83%
    23:00 +14°C° 0.2 mm 1 mps 740 mmHg 85%

    1 June, Monday

    Time Temperature Precipitation Wind Pressure Humidity
    00:00 +13°C° 0 mm 1 mps 740 mmHg 86%
    01:00 +13°C° 0 mm 1 mps 740 mmHg 86%
    02:00 +12°C° 0 mm 1 mps 740 mmHg 87%
    03:00 +12°C° 0 mm 1 mps 740 mmHg 87%
    04:00 +12°C° 0 mm 1 mps 740 mmHg 87%
    05:00 +12°C° 0 mm 1 mps 740 mmHg 86%
    06:00 +14°C° 0 mm 1 mps 741 mmHg 81%
    07:00 +16°C° 0 mm 1 mps 741 mmHg 75%
    08:00 +18°C° 0 mm 1 mps 742 mmHg 69%
    09:00 +20°C° 0 mm 1 mps 742 mmHg 64%
    10:00 +21°C° 0 mm 1 mps 742 mmHg 58%
    11:00 +23°C° 0 mm 1 mps 742 mmHg 52%
    12:00 +23°C° 0.6 mm 1 mps 742 mmHg 52%
    13:00 +23°C° 0.6 mm 1 mps 742 mmHg 51%
    14:00 +24°C° 0.6 mm 2 mps 742 mmHg 51%
    15:00 +24°C° 0.7 mm 1 mps 742 mmHg 53%
    16:00 +23°C° 0.7 mm 1 mps 741 mmHg 55%
    17:00 +23°C° 0.7 mm 1 mps 741 mmHg 56%
    18:00 +21°C° 0.5 mm 1 mps 742 mmHg 62%
    19:00 +20°C° 0.5 mm 1 mps 742 mmHg 68%
    20:00 +18°C° 0.5 mm 1 mps 742 mmHg 73%
    21:00 +18°C° 0.3 mm 1 mps 742 mmHg 76%
    22:00 +16°C° 0.3 mm 1 mps 742 mmHg 78%
    23:00 +15°C° 0.3 mm 1 mps 742 mmHg 81%

    2 June, Tuesday

    Time Temperature Precipitation Wind Pressure Humidity
    00:00 +15°C° 0.6 mm 1 mps 742 mmHg 85%
    01:00 +15°C° 0.6 mm 2 mps 742 mmHg 89%
    02:00 +14°C° 0.6 mm 2 mps 742 mmHg 92%
    03:00 +13°C° 0.8 mm 3 mps 742 mmHg 94%
    04:00 +13°C° 0.8 mm 3 mps 742 mmHg 95%
    05:00 +13°C° 0.8 mm 4 mps 742 mmHg 97%
    06:00 +13°C° 0.3 mm 4 mps 743 mmHg 95%
    07:00 +13°C° 0.3 mm 4 mps 743 mmHg 94%
    08:00 +14°C° 0.3 mm 4 mps 743 mmHg 92%
    09:00 +14°C° 0.1 mm 5 mps 743 mmHg 90%
    10:00 +14°C° 0.1 mm 5 mps 744 mmHg 88%
    11:00 +15°C° 0.1 mm 5 mps 744 mmHg 85%
    12:00 +16°C° 0.1 mm 5 mps 744 mmHg 80%
    13:00 +17°C° 0.1 mm 5 mps 744 mmHg 74%
    14:00 +20°C° 0.1 mm 5 mps 744 mmHg 68%
    15:00 +19°C° 0.3 mm 5 mps 744 mmHg 68%
    16:00 +19°C° 0.3 mm 5 mps 743 mmHg 67%
    17:00 +19°C° 0.3 mm 6 mps 743 mmHg 67%
    18:00 +16°C° 0 mm 5 mps 743 mmHg 71%
    19:00 +15°C° 0 mm 4 mps 743 mmHg 75%
    20:00 +13°C° 0 mm 3 mps 743 mmHg 78%
    21:00 +13°C° 0 mm 3 mps 744 mmHg 80%
    22:00 +13°C° 0 mm 2 mps 744 mmHg 82%
    23:00 +12°C° 0 mm 2 mps 744 mmHg 84%

    3 June, Wednesday

    Time Temperature Precipitation Wind Pressure Humidity
    00:00 +12°C° 0 mm 2 mps 744 mmHg 85%
    01:00 +10°C° 0 mm 2 mps 744 mmHg 87%
    02:00 +10°C° 0 mm 2 mps 744 mmHg 88%
    03:00 +10°C° 0 mm 2 mps 744 mmHg 88%
    04:00 +10°C° 0 mm 2 mps 743 mmHg 88%
    05:00 +10°C° 0 mm 2 mps 743 mmHg 88%
    06:00 +13°C° 0 mm 2 mps 743 mmHg 83%
    07:00 +14°C° 0 mm 3 mps 744 mmHg 77%
    08:00 +17°C° 0 mm 3 mps 744 mmHg 72%
    09:00 +18°C° 0.3 mm 4 mps 744 mmHg 70%
    10:00 +19°C° 0.3 mm 4 mps 744 mmHg 68%
    11:00 +20°C° 0.3 mm 4 mps 744 mmHg 66%
    12:00 +20°C° 1 mm 4 mps 743 mmHg 65%
    13:00 +21°C° 1 mm 4 mps 743 mmHg 63%
    14:00 +21°C° 1 mm 4 mps 743 mmHg 62%
    15:00 +21°C° 0.1 mm 4 mps 743 mmHg 61%
    16:00 +21°C° 0.1 mm 3 mps 742 mmHg 60%
    17:00 +21°C° 0.1 mm 3 mps 742 mmHg 59%
    18:00 +19°C° 0 mm 3 mps 742 mmHg 65%
    19:00 +18°C° 0 mm 3 mps 742 mmHg 72%
    20:00 +16°C° 0 mm 2 mps 742 mmHg 78%
    21:00 +15°C° 0 mm 2 mps 743 mmHg 81%
    22:00 +14°C° 0 mm 2 mps 743 mmHg 84%
    23:00 +14°C° 0 mm 1 mps 744 mmHg 87%
    Show more